[[{"header":{"parameterUnit":"m.s-1","parameterCategory":1,"la1":30.2991,"la2":30.254,"lo1":-89.0895,"lo2":-89.0444,"dy":0.0017,"dx":0.0017,"nx":28,"ny":28,"refTime":"2025-08-03T09:00:00:Z","depth":0,"parameterNumber":2,"parameterNumberName":"U-component_of_WINDS"},"data":[0,0,0,0,0,0,0,0,0,0,0,0,0,0,0,0,0,0,0,0,0,0,0,0,0,0,0,0,0,0,0,0,0,0,0,0,0,0,0,0,0,0,0,0,0,0,0,0,0,0,0,0,0,0,0,0,0,0,-0.4069,-0.4068,0,-0.4027,-0.4027,-0.4026,-0.403,-0.4031,-0.4032,-0.4032,-0.3987,-0.3985,-0.3983,0,0,0,0,0,0,0,0,0,0,0,0,0,-0.4151,-0.4149,-0.4069,-0.4068,-0.4068,-0.4027,-0.4027,-0.4026,-0.403,-0.4031,-0.4032,-0.4033,-0.3987,-0.3985,-0.3983,0,0,0,0,0,0,0,0,0,0,0,0,0,-0.4113,-0.4149,-0.4069,-0.4065,-0.4064,-0.4027,-0.4027,-0.4026,-0.403,-0.4031,-0.4032,-0.4033,-0.3988,-0.3985,-0.3983,-0.3946,0,0,-0.3974,-0.3973,0,0,0,0,0,0,0,0,-0.4115,-0.411,-0.4066,-0.4065,-0.4064,-0.4035,-0.4039,-0.3999,-0.403,-0.4043,-0.4032,-0.4034,-0.4002,-0.3998,-0.3988,-0.3944,-0.3942,-0.3974,-0.3972,-0.3971,-0.3971,0,0,0,0,0,0,0,-0.4117,-0.4111,-0.4052,-0.4066,-0.4064,-0.4065,-0.4061,-0.4031,-0.4017,-0.4042,-0.4042,-0.4037,-0.4002,-0.3991,-0.3987,-0.3941,-0.3974,-0.3972,-0.397,-0.3969,-0.3867,-0.3866,0,0,0,0,0,0,-0.4121,-0.4113,-0.4054,-0.4051,-0.4093,-0.4063,-0.4058,-0.4043,-0.4018,-0.4015,-0.4037,-0.4038,-0.3995,-0.399,-0.3985,-0.3942,-0.3971,-0.3969,-0.3967,-0.3868,-0.3866,-0.3865,0,0,0,0,0,0,-0.4123,-0.4116,-0.4055,-0.4082,-0.4075,-0.406,-0.4044,-0.4042,-0.4031,-0.4014,-0.4011,-0.4028,-0.3995,-0.3989,-0.3956,-0.394,-0.3968,-0.3965,-0.3869,-0.3867,-0.3866,-0.3854,0,0,0,0,0,0,-0.4125,-0.4116,-0.4103,-0.4082,-0.4073,-0.4027,-0.4043,-0.4041,-0.4027,-0.4028,-0.4005,-0.4002,-0.3996,-0.396,-0.3954,-0.3937,-0.3963,-0.387,-0.3868,-0.3866,-0.3856,-0.3852,-0.3849,0,0,0,0,0,-0.4128,-0.41,-0.4102,-0.4095,-0.4056,-0.4027,-0.4021,-0.4016,-0.4025,-0.4011,-0.4,-0.4003,-0.3943,-0.3957,-0.3949,-0.3932,-0.3871,-0.3869,-0.3866,-0.3857,-0.3853,-0.3849,0,0,0,0,0,0,-0.4118,-0.4097,-0.4099,-0.4063,-0.4047,-0.4027,-0.4009,-0.4011,-0.399,-0.3992,-0.3985,-0.3979,-0.3947,-0.3936,-0.3952,-0.3896,-0.3908,-0.3904,-0.3904,-0.39,-0.3897,-0.39,-0.3961,0,0,0,0,0,-0.4111,-0.409,-0.4073,-0.4043,-0.4035,-0.4024,-0.4011,-0.4008,-0.399,-0.3982,-0.3969,-0.3951,-0.3928,-0.3913,-0.3891,-0.3854,-0.385,-0.3838,-0.3835,-0.3832,-0.3829,-0.381,-0.3805,-0.3857,-0.3857,-0.3857,0,0,-0.4098,-0.4084,-0.4071,-0.4041,-0.4028,-0.4005,-0.4018,-0.3993,-0.3977,-0.3978,-0.3947,-0.3937,-0.3916,-0.3881,-0.3865,-0.3871,-0.3814,-0.3829,-0.3827,-0.3825,-0.3807,-0.3802,-0.3798,-0.3856,-0.3856,-0.3856,0,0,-0.4062,-0.4049,-0.4024,-0.4011,-0.3991,-0.3984,-0.3978,-0.3959,-0.3952,-0.3921,-0.3922,-0.3902,-0.3863,-0.3849,-0.3836,-0.3797,-0.3799,-0.379,-0.3772,-0.3754,-0.375,-0.3746,-0.3733,-0.3728,-0.3786,-0.3786,-0.3786,0,-0.4047,-0.4015,-0.401,-0.3986,-0.3973,-0.3975,-0.395,-0.3937,-0.3911,-0.3902,-0.3909,-0.3861,-0.3847,-0.381,-0.38,-0.379,-0.3783,-0.3792,-0.3751,-0.3747,-0.3744,-0.3731,-0.3726,-0.3785,-0.3786,-0.3786,-0.3786,0,-0.3999,-0.3976,-0.3958,-0.3934,-0.3919,-0.3894,-0.3886,-0.3871,-0.3869,-0.3862,-0.383,-0.3814,-0.3789,-0.378,-0.3778,-0.3743,-0.3747,-0.3753,-0.3766,-0.3738,-0.3726,-0.3721,-0.3784,-0.3785,-0.3785,-0.3785,0,0,-0.3954,-0.393,-0.3923,-0.3913,-0.3893,-0.3875,-0.385,-0.3828,-0.3815,-0.3797,-0.3777,-0.3744,-0.375,-0.3736,-0.3732,-0.3716,-0.3687,-0.3723,-0.3723,-0.3718,-0.3649,-0.3645,-0.364,-0.3688,-0.3687,-0.3686,-0.3651,0,-0.3918,-0.3875,-0.3871,-0.3833,-0.3813,-0.3815,-0.3794,-0.3779,-0.3771,-0.3752,-0.3743,-0.3721,-0.3729,-0.3721,-0.3704,-0.3694,-0.3673,-0.3696,-0.3669,-0.3668,-0.3675,-0.3633,-0.3629,-0.3597,-0.3646,-0.3645,-0.3645,0,-0.3869,-0.3851,-0.3812,-0.3795,-0.3787,-0.3768,-0.3747,-0.3729,-0.3712,-0.3708,-0.3693,-0.3692,-0.3666,-0.368,-0.3645,-0.3661,-0.365,-0.3643,-0.3642,-0.3639,-0.3655,-0.3631,-0.3586,-0.3581,-0.3637,-0.3638,-0.3638,0,-0.3842,-0.3808,-0.3781,-0.3772,-0.3752,-0.3739,-0.373,-0.3714,-0.3701,-0.3682,-0.3674,-0.3653,-0.3641,-0.3624,-0.3618,-0.3628,-0.3584,-0.3596,-0.3579,-0.3579,-0.357,-0.3571,-0.3524,-0.3561,-0.3561,-0.3562,-0.3562,0,-0.3802,-0.3778,-0.3769,-0.3752,-0.3726,-0.3721,-0.3694,-0.3686,-0.3672,-0.3653,-0.3653,-0.3635,-0.3627,-0.3608,-0.3602,-0.3575,-0.3569,-0.3565,-0.3564,-0.3565,-0.3566,-0.3558,-0.356,-0.356,-0.356,-0.3561,-0.3561,0,-0.3768,-0.3761,-0.3731,-0.3715,-0.371,-0.3692,-0.3678,-0.3661,-0.3654,-0.3631,-0.3625,-0.3613,-0.3591,-0.3582,-0.3554,-0.3551,-0.352,-0.352,-0.3526,-0.3526,-0.351,-0.3512,-0.3456,-0.3449,-0.3491,-0.349,-0.349,0,-0.3743,-0.3725,-0.3707,-0.3696,-0.3686,-0.3667,-0.3654,-0.3649,-0.3636,-0.3616,-0.3602,-0.358,-0.3563,-0.3527,-0.3516,-0.3495,-0.3495,-0.3477,-0.3492,-0.3494,-0.3496,-0.3497,-0.3496,-0.3474,-0.3474,-0.3473,-0.3473,0,-0.37,-0.3698,-0.368,-0.3662,-0.3647,-0.3632,-0.3617,-0.3607,-0.3599,-0.3584,-0.3563,-0.3549,-0.3522,-0.35,-0.3479,-0.3469,-0.347,-0.3469,-0.3464,-0.3466,-0.347,-0.3469,-0.3519,-0.347,-0.347,-0.3471,-0.3471,-0.3471,-0.367,-0.3655,-0.3641,-0.3622,-0.361,-0.3597,-0.3581,-0.3573,-0.3555,-0.3533,-0.3531,-0.3507,-0.3491,-0.3463,-0.3453,-0.3434,-0.3439,-0.3431,-0.343,-0.3428,-0.3428,-0.3473,-0.343,-0.343,-0.343,-0.343,-0.343,0,-0.3628,-0.362,-0.3602,-0.3582,-0.3567,-0.3571,-0.3555,-0.3542,-0.3522,-0.3507,-0.349,-0.3466,-0.3445,-0.3433,-0.3412,-0.34,-0.34,-0.3395,-0.3396,-0.3394,-0.3424,-0.3431,-0.3395,-0.3395,-0.3395,-0.3395,-0.3395,-0.3395,-0.3605,-0.358,-0.3576,-0.3545,-0.3536,-0.3515,-0.3505,-0.3493,-0.3482,-0.3455,-0.3438,-0.3431,-0.3417,-0.3396,-0.3377,-0.3374,-0.3367,-0.3362,-0.3359,-0.3388,-0.3391,-0.3395,-0.3401,-0.336,-0.336,-0.333,-0.333,-0.333]},{"header":{"parameterUnit":"m.s-1","parameterCategory":1,"la1":30.2991,"la2":30.254,"lo1":-89.0895,"lo2":-89.0444,"dy":0.0017,"dx":0.0017,"nx":28,"ny":28,"refTime":"2025-08-03T09:00:00:Z","depth":0,"parameterNumber":3,"parameterNumberName":"V-component_of_WINDS"},"data":[0,0,0,0,0,0,0,0,0,0,0,0,0,0,0,0,0,0,0,0,0,0,0,0,0,0,0,0,0,0,0,0,0,0,0,0,0,0,0,0,0,0,0,0,0,0,0,0,0,0,0,0,0,0,0,0,0,0,2.5186,2.5185,0,2.5063,2.5062,2.506,2.493,2.4929,2.4927,2.4925,2.4796,2.4794,2.4793,0,0,0,0,0,0,0,0,0,0,0,0,0,2.5305,2.5304,2.5186,2.5184,2.5183,2.5063,2.5062,2.506,2.4931,2.4929,2.4926,2.4924,2.4797,2.4795,2.4793,0,0,0,0,0,0,0,0,0,0,0,0,0,2.5225,2.5303,2.5186,2.5104,2.5095,2.5064,2.5062,2.506,2.4931,2.4928,2.4926,2.4923,2.4797,2.4795,2.4792,2.4831,0,0,2.4784,2.4783,0,0,0,0,0,0,0,0,2.523,2.5221,2.5118,2.511,2.51,2.5009,2.5056,2.4983,2.4932,2.4994,2.4925,2.4922,2.4869,2.486,2.4843,2.4825,2.4819,2.4784,2.4782,2.4781,2.4781,0,0,0,0,0,0,0,2.5236,2.5225,2.5137,2.5116,2.5106,2.5072,2.5058,2.5042,2.4948,2.4988,2.4978,2.4966,2.4864,2.4846,2.4839,2.4817,2.4784,2.4782,2.478,2.4779,2.4822,2.4825,0,0,0,0,0,0,2.5254,2.5231,2.5141,2.5134,2.516,2.5072,2.5056,2.5041,2.4948,2.4931,2.4968,2.496,2.4852,2.4842,2.4834,2.4871,2.4781,2.4779,2.4777,2.482,2.4823,2.4826,0,0,0,0,0,0,2.5257,2.5247,2.5146,2.518,2.5164,2.5073,2.5057,2.504,2.5022,2.4933,2.4915,2.4968,2.4849,2.4838,2.4832,2.4865,2.4778,2.4775,2.4816,2.4821,2.4824,2.4948,0,0,0,0,0,0,2.5261,2.5249,2.5263,2.5181,2.5163,2.5148,2.5059,2.504,2.5019,2.5007,2.4928,2.4912,2.4846,2.4837,2.483,2.486,2.4773,2.4813,2.4818,2.4823,2.494,2.4956,2.4969,0,0,0,0,0,2.5266,2.5303,2.5265,2.5255,2.5179,2.515,2.5139,2.5064,2.5022,2.5035,2.4977,2.4914,2.4864,2.4838,2.4828,2.4858,2.4811,2.4817,2.4823,2.4934,2.4953,2.4968,0,0,0,0,0,0,2.539,2.529,2.5247,2.5259,2.5214,2.5128,2.5142,2.5087,2.5052,2.5042,2.495,2.4933,2.4938,2.4897,2.487,2.489,2.4828,2.4833,2.4916,2.4933,2.4947,2.4955,2.4771,0,0,0,0,0,2.5419,2.5405,2.5318,2.5336,2.5316,2.5234,2.5218,2.5164,2.5113,2.5093,2.5035,2.4988,2.4961,2.4945,2.4915,2.4935,2.4915,2.4951,2.4965,2.4977,2.4981,2.4987,2.5002,2.4846,2.4846,2.4846,0,0,2.5478,2.5422,2.5418,2.536,2.5319,2.5305,2.5218,2.5207,2.5195,2.5091,2.5082,2.5039,2.4979,2.4986,2.4986,2.4953,2.5021,2.4985,2.4995,2.4993,2.4995,2.501,2.5023,2.485,2.4849,2.4849,0,0,2.5578,2.5535,2.5545,2.5506,2.5446,2.5391,2.5394,2.5316,2.5283,2.5273,2.5195,2.5179,2.5135,2.5095,2.507,2.5157,2.5097,2.515,2.5223,2.523,2.5242,2.5252,2.5282,2.5293,2.5155,2.5155,2.5155,0,2.5659,2.5636,2.5557,2.5551,2.5527,2.5434,2.5443,2.5408,2.5341,2.5326,2.529,2.5233,2.5186,2.5182,2.5204,2.5186,2.5185,2.5157,2.5247,2.5256,2.5265,2.5292,2.5303,2.5162,2.5161,2.516,2.516,0,2.5737,2.5722,2.5738,2.5676,2.5654,2.5656,2.5576,2.5563,2.5512,2.5461,2.5451,2.5393,2.5349,2.5345,2.5294,2.5333,2.5314,2.5264,2.5199,2.5288,2.5311,2.5321,2.5171,2.5169,2.5167,2.5165,0,0,2.591,2.5806,2.5813,2.5783,2.571,2.5697,2.5694,2.5652,2.5642,2.56,2.5594,2.5559,2.5512,2.5483,2.5428,2.5434,2.5505,2.5383,2.538,2.5406,2.5543,2.558,2.5593,2.5466,2.5468,2.5469,2.5547,0,2.5996,2.5985,2.5915,2.5925,2.5909,2.5821,2.5819,2.5773,2.5726,2.5705,2.5651,2.5628,2.5568,2.555,2.5553,2.5496,2.5531,2.5489,2.5457,2.5457,2.5473,2.5605,2.5644,2.5721,2.5556,2.5558,2.5559,0,2.6094,2.6058,2.6067,2.5994,2.5984,2.5984,2.594,2.5922,2.5868,2.5832,2.5801,2.5739,2.5729,2.5671,2.5656,2.563,2.5612,2.5583,2.5584,2.5576,2.5512,2.56,2.5744,2.5755,2.5573,2.5572,2.5571,0,2.6217,2.6171,2.617,2.6148,2.6063,2.6064,2.6029,2.5972,2.5952,2.5914,2.5899,2.5861,2.5839,2.581,2.5738,2.5702,2.5731,2.5666,2.5699,2.5701,2.5708,2.5708,2.5849,2.5701,2.57,2.57,2.57,0,2.6319,2.6327,2.6224,2.6223,2.623,2.6149,2.6157,2.6113,2.6064,2.6052,2.5974,2.5964,2.5872,2.5851,2.5795,2.579,2.5782,2.5752,2.5736,2.5757,2.5761,2.5743,2.5736,2.5703,2.5703,2.5702,2.5701,0,2.6456,2.6388,2.6381,2.6302,2.6282,2.629,2.6222,2.6217,2.6165,2.6151,2.6143,2.6062,2.6033,2.596,2.5912,2.5875,2.5885,2.5858,2.5903,2.5893,2.593,2.5927,2.6064,2.6077,2.5922,2.5924,2.5925,0,2.6525,2.6529,2.6451,2.6438,2.6406,2.6387,2.6366,2.6287,2.6268,2.6208,2.621,2.6176,2.6144,2.6103,2.6039,2.6002,2.5972,2.6023,2.5966,2.5987,2.5971,2.5971,2.597,2.6034,2.6037,2.6038,2.604,0,2.6653,2.6619,2.6593,2.6555,2.6533,2.6499,2.646,2.6454,2.6365,2.6348,2.6319,2.6295,2.6247,2.6213,2.6167,2.6128,2.6069,2.6059,2.6064,2.6085,2.611,2.6095,2.5935,2.6055,2.6054,2.6052,2.6052,2.6051,2.6756,2.6756,2.6701,2.6674,2.6638,2.6604,2.6595,2.6543,2.6518,2.6474,2.6428,2.6404,2.635,2.6281,2.6247,2.6226,2.6195,2.6204,2.6205,2.6208,2.6217,2.6116,2.6218,2.6217,2.6217,2.6216,2.6216,0,2.6879,2.684,2.6816,2.6765,2.6744,2.6693,2.6647,2.6633,2.6613,2.6568,2.6539,2.6505,2.6473,2.6407,2.6368,2.6364,2.6335,2.6356,2.6354,2.6346,2.6248,2.6246,2.638,2.6379,2.6379,2.6379,2.6379,2.6379,2.694,2.6937,2.6897,2.6874,2.6834,2.6811,2.6789,2.6757,2.6721,2.6687,2.6661,2.6618,2.6564,2.6521,2.6489,2.647,2.6459,2.6488,2.646,2.6369,2.6353,2.6339,2.6336,2.6487,2.6487,2.656,2.6561,2.6561]}]]